Wetbulb
63.92 67.11 73.00 74.26 74.10 74.09 73.77 73.78 73.23 73.12 72.53 72.58 72.34 72.60 73.07 73.42 73.51 73.43 73.23 72.97 72.54 71.73 70.32 69.62 69.43 69.07 68.86 68.59 69.10 69.83 70.33 71.16 71.54 72.24 72.27 72.27 72.15 72.24 72.27 72.42 72.31 71.39 72.68
64.76 68.28 72.12 73.81 74.45 74.59 74.32 74.04 73.33 72.87 72.32 72.30 72.01 72.06 72.28 73.60 73.31 72.86 72.26 71.69 71.04 70.24 70.68 69.51 69.23 68.56 67.81 67.26 67.34 67.96 68.83 68.32 67.93 68.21 70.10 71.27 71.19 70.72 71.07 71.43 72.13 71.42 72.25
65.57 69.18 71.53 72.98 73.90 74.41 74.18 73.73 73.18 72.76 72.38 72.27 71.77 71.66 72.02 72.88 72.71 72.21 71.57 70.92 70.41 69.86 69.40 69.04 68.51 67.51 66.82 66.19 66.25 66.26 66.52 65.69 65.96 67.10 66.72 67.23 67.63 70.28 70.41 70.47 71.03 71.29 70.64
67.03 69.63 71.04 71.70 73.61 74.12 73.95 73.39 72.99 72.80 72.50 72.10 71.66 71.55 71.56 71.99 72.00 71.78 71.26 70.24 69.52 69.05 68.69 68.25 67.38 66.17 65.12 64.62 64.65 64.51 64.63 64.23 65.94 67.32 65.54 68.00 68.66 70.21 70.32 70.11 69.71 69.93 69.66
67.09 69.47 70.61 71.31 73.54 73.83 73.60 73.24 72.94 72.80 72.72 72.23 71.77 71.58 71.41 71.51 71.65 71.41 70.91 69.91 69.20 68.51 67.51 67.14 65.60 64.55 63.00 62.49 62.04 62.23 62.64 64.30 66.57 65.94 65.25 65.84 67.32 69.50 69.49 68.88 68.83 69.03 69.12
66.05 68.52 69.80 71.59 73.44 73.58 73.21 73.05 72.97 72.96 72.88 72.48 71.87 71.79 71.90 71.97 71.49 70.85 70.17 69.28 68.06 67.47 66.33 65.66 64.24 62.28 60.64 59.74 58.67 59.97 61.65 64.80 63.53 61.12 62.51 64.82 65.07 69.52 69.61 69.00 68.80 68.75 68.48
64.85 67.03 68.51 70.96 72.52 73.08 73.06 72.86 72.64 72.94 73.13 72.81 72.81 72.84 72.01 71.18 70.37 69.84 69.55 68.82 67.59 65.76 65.43 64.46 62.52 60.61 58.86 57.25 56.79 58.58 59.89 62.53 58.32 58.21 59.37 61.46 64.18 67.47 67.04 67.90 68.80 68.43 67.24
64.51 66.01 67.99 68.19 69.97 71.50 72.16 72.25 72.31 72.43 72.63 72.65 72.86 72.46 72.14 71.18 69.94 68.83 68.09 67.79 67.06 65.72 64.86 63.77 61.32 59.32 57.40 55.66 56.13 57.68 58.60 59.07 56.57 55.34 55.68 57.42 65.17 65.86 66.16 66.35 66.65 67.16 67.12
63.81 64.97 66.62 68.64 68.68 67.80 69.18 69.09 70.68 71.45 71.68 71.97 72.01 71.54 70.80 70.21 69.23 68.44 67.88 67.71 66.20 65.46 64.65 63.36 60.37 58.45 56.58 54.62 55.21 57.30 56.95 56.88 51.76 52.50 54.93 54.79 62.85 62.69 63.19 63.80 64.67 65.00 64.96
58.94 64.23 65.29 67.02 68.93 68.68 68.46 66.57 67.58 68.97 69.61 70.16 69.76 68.41 67.51 67.00 66.88 66.20 65.06 66.22 65.86 64.97 64.37 62.72 59.92 58.22 56.43 53.72 52.82 54.54 54.71 54.38 48.82 50.19 51.91 54.28 61.32 60.65 60.91 61.66 62.55 63.22 63.43
56.27 60.08 63.60 65.20 67.28 69.39 69.69 67.65 65.51 66.44 66.96 66.90 66.56 65.28 63.82 64.73 63.86 62.85 62.37 64.69 66.21 65.33 63.82 62.42 59.92 58.38 55.48 51.87 51.19 52.16 48.51 44.59 45.70 46.69 49.28 56.25 57.92 58.77 58.81 59.15 60.34 61.21 61.82
51.77 55.28 60.15 63.41 65.51 67.46 68.13 68.32 68.03 68.36 68.26 67.85 67.28 65.59 64.76 64.74 63.22 61.36 59.86 62.51 64.26 63.22 63.80 62.15 60.07 58.15 49.74 40.49 40.26 45.67 39.97 41.40 43.41 44.25 47.73 56.41 56.59 58.11 58.60 58.64 59.19 59.93 60.54
48.56 51.54 56.45 60.65 63.25 66.17 67.23 67.43 67.18 65.34 66.21 66.83 66.44 65.64 64.06 63.24 61.52 60.59 59.62 59.17 58.30 58.23 57.23 58.26 55.11 49.28 41.74 38.90 39.19 39.51 39.04 38.87 41.45 42.06 47.48 54.59 57.40 57.70 58.05 58.06 59.11 60.14 60.42
42.55 44.06 46.10 55.28 60.77 62.47 64.72 66.52 66.56 66.49 64.72 65.05 64.29 63.68 63.02 61.70 60.56 59.36 58.49 57.83 56.39 54.45 53.29 52.03 50.12 47.84 43.77 41.75 40.69 39.49 38.73 38.26 39.97 40.83 43.40 52.64 55.28 58.40 58.69 59.91 60.39 60.07 59.29
41.48 42.32 42.95 44.28 57.02 61.18 61.40 61.91 64.87 65.56 66.17 65.70 64.71 62.97 60.46 60.89 60.49 59.05 57.91 56.91 56.07 54.30 51.44 49.72 48.19 46.86 42.23 39.97 39.51 39.00 38.53 38.36 38.92 41.56 42.30 50.89 54.89 57.87 59.90 60.30 59.99 60.18 60.54
41.33 41.69 42.98 44.13 49.18 58.55 60.84 59.92 62.75 64.80 64.75 64.16 63.77 63.58 60.64 59.50 58.80 59.08 57.41 56.18 55.07 53.75 50.71 49.31 47.65 45.49 40.88 38.87 38.93 38.89 38.38 38.02 38.15 40.98 42.55 46.86 54.33 56.92 59.24 59.92 60.58 60.74 60.89
39.90 41.12 42.33 44.82 47.23 56.27 58.28 58.58 59.44 63.44 63.43 63.01 63.13 61.97 59.91 59.95 60.12 59.18 57.24 55.37 55.01 53.02 50.21 47.90 45.99 42.73 39.57 38.27 37.48 37.86 37.74 37.70 37.77 38.63 42.35 45.55 47.64 52.57 57.21 59.33 60.25 61.24 61.66
38.92 39.63 41.80 44.07 44.71 53.13 56.38 57.35 58.25 58.62 58.84 59.50 60.14 61.12 60.90 60.75 60.29 58.02 56.23 55.01 54.87 52.85 51.63 49.33 46.35 41.84 39.51 37.27 35.92 35.93 35.90 36.59 37.42 37.96 40.47 44.13 45.97 47.52 50.47 55.95 58.22 60.44 61.23
38.23 38.85 40.01 41.73 42.79 46.33 53.32 55.34 56.15 56.11 57.21 58.17 59.34 60.34 60.63 60.36 60.06 58.20 56.51 55.08 53.63 52.83 51.04 48.95 43.88 43.05 38.77 36.83 36.38 35.26 34.81 34.91 36.01 37.88 37.52 39.47 44.48 45.74 45.43 49.74 51.36 51.97 57.71
37.73 38.52 39.11 40.42 41.01 44.07 47.02 50.52 50.01 49.13 50.69 53.06 53.02 54.82 58.32 58.89 57.73 56.67 55.62 54.26 53.15 51.80 48.62 45.84 44.15 40.32 37.73 37.22 37.62 36.14 33.74 34.21 34.83 34.85 35.56 38.28 41.78 43.92 43.79 43.59 42.85 44.83 50.12
36.46 37.12 37.45 37.82 38.63 40.92 41.92 43.34 44.81 42.80 43.30 43.88 46.46 47.69 50.36 52.74 54.95 54.54 54.24 53.23 51.62 50.70 49.11 46.36 42.00 40.96 38.85 37.77 34.93 33.89 33.65 34.10 34.00 34.40 34.58 35.53 38.29 39.69 41.15 41.58 40.50 41.02 42.94
33.84 35.52 36.42 36.87 37.20 38.27 39.49 39.87 41.63 40.74 40.58 40.69 42.40 43.15 43.75 45.36 47.43 49.72 49.64 48.60 48.50 47.41 45.35 43.67 41.93 39.72 39.36 37.87 36.62 33.21 31.54 32.99 32.93 33.96 33.68 34.76 35.67 36.89 36.81 38.20 38.10 38.77 39.67
32.03 32.66 34.87 35.62 36.38 36.93 38.12 38.82 38.99 38.81 37.75 37.35 37.52 38.57 39.08 39.98 39.80 41.73 44.57 46.76 45.93 45.43 44.79 43.53 41.80 40.60 39.98 37.87 36.75 37.47 32.69 28.97 28.50 31.18 31.94 32.44 33.49 34.09 34.28 35.02 35.87 36.46 37.33
30.54 31.51 33.34 33.98 33.96 35.18 36.53 36.26 35.24 34.02 32.90 33.44 34.63 35.42 36.23 36.69 36.05 36.74 37.61 39.36 42.32 43.86 43.07 42.12 41.93 40.30 39.22 38.57 36.81 36.83 34.98 34.28 31.72 30.50 30.89 31.21 32.04 33.59 33.02 33.29 33.82 34.45 35.33
30.12 29.31 30.46 32.27 32.33 32.24 32.49 33.00 32.34 30.81 31.69 31.53 31.85 31.76 32.64 33.77 33.82 33.72 34.66 35.18 35.63 36.71 37.62 39.76 40.36 39.39 38.75 38.05 37.28 35.99 34.44 34.44 33.44 31.88 32.16 29.91 30.34 31.68 33.07 33.78 34.06 33.27 34.09
28.72 28.90 29.46 30.50 30.51 30.87 30.69 30.47 29.67 28.89 28.86 28.87 28.90 28.99 29.83 30.97 31.32 31.39 31.91 32.13 33.00 33.53 33.72 34.75 36.19 37.06 38.33 38.58 37.79 36.85 35.56 34.93 33.66 33.11 31.44 32.10 30.82 31.26 31.32 31.73 32.02 34.23 34.08
MSLP
1015.39 1015.17 1015.20 1015.42 1015.71 1016.01 1016.25 1016.51 1016.79 1017.07 1017.11 1017.21 1017.31 1017.35 1017.36 1017.45 1017.58 1017.65 1017.74 1017.90 1017.88 1018.00 1018.12 1018.28 1018.37 1018.42 1018.50 1018.54 1018.49 1018.47 1018.45 1018.30 1018.33 1018.31 1018.29 1018.27 1018.30 1018.36 1018.33 1018.31 1018.20 1018.23 1018.03
1014.47 1015.15 1015.26 1015.46 1015.70 1016.05 1016.38 1016.64 1016.89 1017.08 1017.23 1017.34 1017.49 1017.59 1017.65 1017.73 1017.85 1017.95 1018.08 1018.26 1018.35 1018.47 1018.51 1018.55 1018.66 1018.75 1018.78 1018.81 1018.84 1018.85 1018.74 1018.71 1018.69 1018.73 1018.75 1018.71 1018.75 1018.75 1018.71 1018.65 1018.52 1018.48 1018.38
1014.66 1015.10 1015.52 1015.77 1015.95 1016.15 1016.49 1016.80 1016.93 1017.05 1017.25 1017.44 1017.66 1017.80 1017.95 1018.06 1018.14 1018.29 1018.41 1018.53 1018.71 1018.85 1018.93 1018.91 1019.08 1019.17 1019.09 1019.15 1019.10 1019.08 1019.07 1018.95 1018.87 1018.87 1018.95 1019.21 1019.15 1018.99 1019.02 1018.97 1018.92 1018.87 1018.72
1014.63 1015.02 1015.49 1015.85 1016.13 1016.42 1016.67 1016.89 1017.08 1017.32 1017.50 1017.64 1017.74 1017.85 1018.06 1018.23 1018.37 1018.51 1018.64 1018.86 1018.98 1019.09 1019.20 1019.36 1019.47 1019.51 1019.59 1019.56 1019.46 1019.43 1019.42 1019.29 1019.18 1019.09 1019.27 1019.39 1019.34 1019.13 1019.12 1019.19 1019.27 1019.27 1019.23
1014.87 1015.00 1015.36 1015.80 1016.16 1016.46 1016.74 1017.02 1017.27 1017.44 1017.56 1017.73 1017.91 1018.10 1018.21 1018.32 1018.54 1018.72 1018.90 1019.16 1019.27 1019.37 1019.52 1019.59 1019.70 1019.76 1019.87 1019.82 1019.81 1019.79 1019.69 1019.64 1019.61 1019.57 1019.61 1019.64 1019.54 1019.39 1019.30 1019.36 1019.53 1019.61 1019.61
1015.09 1015.21 1015.40 1015.71 1016.07 1016.46 1016.83 1017.04 1017.25 1017.47 1017.67 1017.81 1017.98 1018.15 1018.31 1018.41 1018.65 1018.90 1019.17 1019.34 1019.48 1019.77 1019.92 1019.96 1020.03 1020.11 1020.12 1020.17 1020.10 1020.04 1019.90 1019.94 1020.05 1020.08 1020.08 1019.98 1019.75 1019.61 1019.53 1019.49 1019.66 1019.78 1019.87
1015.29 1015.33 1015.53 1015.77 1016.01 1016.31 1016.64 1016.96 1017.29 1017.49 1017.64 1017.79 1017.95 1018.09 1018.27 1018.56 1018.90 1019.15 1019.32 1019.42 1019.56 1019.81 1020.12 1020.19 1020.31 1020.41 1020.44 1020.47 1020.39 1020.27 1020.15 1020.29 1020.50 1020.54 1020.50 1020.39 1020.11 1019.95 1019.73 1019.67 1019.83 1019.89 1019.98
1015.15 1015.32 1015.50 1015.69 1015.83 1016.00 1016.30 1016.67 1016.98 1017.31 1017.59 1017.77 1017.95 1018.17 1018.41 1018.67 1019.01 1019.29 1019.48 1019.57 1019.66 1019.90 1020.14 1020.31 1020.52 1020.63 1020.72 1020.73 1020.63 1020.56 1020.44 1020.60 1020.75 1020.79 1020.78 1020.62 1020.35 1020.30 1020.27 1020.22 1020.16 1020.24 1020.31
1015.28 1015.45 1015.57 1015.75 1015.96 1016.18 1016.40 1016.63 1016.92 1017.28 1017.56 1017.78 1017.98 1018.23 1018.50 1018.79 1019.03 1019.29 1019.50 1019.61 1019.71 1019.99 1020.30 1020.50 1020.67 1020.82 1020.91 1020.94 1020.86 1020.80 1020.80 1020.89 1021.00 1021.13 1020.92 1020.89 1020.65 1020.57 1020.54 1020.53 1020.53 1020.54 1020.66
1015.46 1015.36 1015.48 1015.60 1015.91 1016.22 1016.39 1016.61 1016.98 1017.31 1017.57 1017.79 1018.01 1018.25 1018.53 1018.88 1019.14 1019.43 1019.63 1019.75 1019.89 1020.10 1020.37 1020.69 1020.95 1021.09 1021.14 1021.19 1021.17 1021.09 1021.11 1021.18 1021.33 1021.41 1021.29 1021.18 1020.85 1020.83 1020.78 1020.79 1020.63 1020.65 1020.76
1015.68 1015.57 1015.45 1015.61 1015.70 1015.84 1016.21 1016.59 1016.94 1017.25 1017.52 1017.78 1018.05 1018.33 1018.63 1019.00 1019.30 1019.52 1019.73 1019.94 1020.15 1020.40 1020.58 1020.84 1021.07 1021.20 1021.42 1021.54 1021.46 1021.45 1021.41 1021.62 1021.62 1021.65 1021.58 1021.22 1021.04 1021.00 1020.90 1020.94 1020.94 1020.82 1020.87
1016.27 1016.13 1016.07 1015.75 1015.77 1016.00 1016.19 1016.42 1016.76 1016.89 1017.23 1017.55 1017.85 1018.16 1018.50 1018.77 1019.11 1019.51 1019.80 1019.92 1020.14 1020.46 1020.75 1021.03 1021.27 1021.48 1021.78 1021.91 1021.86 1021.78 1021.79 1021.80 1021.81 1021.74 1021.68 1021.47 1021.21 1021.04 1020.91 1021.00 1020.99 1020.85 1020.93
1016.51 1016.11 1015.91 1016.05 1016.00 1015.97 1015.96 1016.24 1016.65 1017.09 1017.15 1017.27 1017.64 1018.01 1018.34 1018.85 1019.17 1019.65 1019.91 1020.26 1020.45 1020.55 1020.83 1021.09 1021.52 1022.06 1022.32 1022.42 1022.28 1022.09 1022.02 1022.02 1022.04 1022.00 1021.84 1021.58 1021.39 1021.14 1021.02 1020.95 1020.91 1020.78 1021.04
1017.28 1016.95 1016.50 1016.01 1015.73 1015.91 1016.08 1016.11 1016.37 1016.80 1017.24 1017.41 1017.74 1018.06 1018.32 1018.84 1019.28 1019.80 1020.11 1020.43 1020.75 1020.98 1021.24 1021.37 1021.72 1022.14 1022.46 1022.59 1022.56 1022.42 1022.31 1022.29 1022.31 1022.24 1022.10 1021.81 1021.56 1021.33 1020.96 1020.86 1020.90 1020.93 1021.00
1018.07 1017.62 1016.97 1016.34 1015.77 1015.44 1015.80 1016.22 1016.44 1016.60 1016.96 1017.36 1017.72 1018.21 1018.64 1018.74 1019.07 1019.62 1020.01 1020.36 1020.67 1021.10 1021.46 1021.79 1021.99 1022.14 1022.45 1022.63 1022.68 1022.71 1022.65 1022.55 1022.45 1022.39 1022.30 1022.02 1021.80 1021.51 1021.06 1020.85 1020.89 1020.86 1020.92
1018.95 1018.15 1017.48 1016.58 1015.79 1015.47 1015.69 1015.99 1016.37 1016.71 1016.99 1017.30 1017.66 1018.11 1018.49 1018.71 1019.02 1019.32 1019.87 1020.19 1020.51 1020.77 1021.30 1021.69 1022.05 1022.44 1022.66 1022.78 1022.83 1022.80 1022.78 1022.73 1022.64 1022.50 1022.32 1022.13 1021.79 1021.49 1021.19 1020.91 1020.85 1020.89 1020.96
1019.74 1018.97 1017.98 1017.09 1016.23 1015.65 1015.81 1016.16 1016.62 1016.74 1017.07 1017.50 1017.71 1017.96 1018.25 1018.50 1018.72 1018.90 1019.51 1020.13 1020.32 1020.35 1020.96 1021.61 1022.01 1022.31 1022.64 1022.84 1023.00 1022.97 1022.92 1022.81 1022.67 1022.50 1022.34 1022.19 1021.99 1021.68 1021.31 1020.97 1020.79 1020.77 1020.71
1020.32 1019.59 1018.83 1017.99 1017.05 1016.37 1016.36 1016.44 1016.80 1017.32 1017.67 1017.82 1017.97 1018.00 1018.12 1018.30 1018.65 1019.09 1019.50 1019.81 1019.92 1020.48 1020.75 1021.31 1021.90 1022.34 1022.49 1022.67 1022.79 1022.90 1022.97 1022.88 1022.75 1022.65 1022.53 1022.37 1022.19 1021.94 1021.65 1021.28 1021.04 1020.82 1020.73
1021.14 1020.31 1019.43 1018.71 1018.08 1017.50 1017.14 1017.28 1017.62 1018.02 1018.25 1018.42 1018.43 1018.47 1018.45 1018.51 1018.69 1018.97 1019.33 1019.59 1019.91 1020.30 1020.77 1021.18 1021.94 1022.34 1022.61 1022.89 1023.02 1022.99 1022.91 1022.84 1022.71 1022.52 1022.53 1022.47 1022.37 1022.16 1021.98 1021.67 1021.39 1021.18 1020.86
1021.79 1021.23 1020.57 1019.83 1019.00 1018.37 1018.18 1018.21 1018.72 1019.20 1019.52 1019.55 1019.70 1019.62 1019.22 1019.10 1019.10 1019.27 1019.44 1019.73 1020.02 1020.36 1020.94 1021.28 1021.76 1022.29 1022.71 1022.88 1023.06 1023.14 1023.14 1023.03 1022.77 1022.57 1022.44 1022.31 1022.21 1022.14 1022.07 1021.90 1021.66 1021.39 1021.14
1022.32 1021.67 1021.30 1020.79 1020.59 1019.68 1019.16 1019.49 1019.84 1020.63 1021.04 1021.04 1020.88 1020.92 1020.52 1020.29 1020.06 1020.08 1020.20 1020.35 1020.52 1020.80 1021.07 1021.51 1021.95 1022.34 1022.65 1022.94 1023.31 1023.15 1022.85 1022.54 1022.56 1022.48 1022.43 1022.25 1022.02 1021.91 1022.01 1022.08 1021.95 1021.73 1021.50
1023.88 1023.34 1022.76 1022.27 1021.71 1021.31 1021.20 1021.35 1021.58 1021.75 1022.21 1022.47 1022.31 1022.24 1022.17 1021.90 1021.53 1021.14 1021.03 1021.11 1021.27 1021.55 1021.83 1022.07 1022.18 1022.51 1022.70 1022.83 1023.24 1023.78 1023.33 1022.54 1022.24 1021.97 1022.13 1022.20 1022.13 1022.09 1021.98 1021.84 1021.92 1021.87 1021.76
1024.66 1024.16 1023.61 1023.23 1023.07 1023.00 1022.55 1022.16 1022.20 1022.38 1022.96 1023.16 1023.47 1023.43 1023.53 1023.40 1023.15 1022.81 1022.47 1022.14 1021.88 1021.85 1022.23 1022.43 1022.67 1022.96 1023.00 1023.07 1023.12 1023.30 1023.59 1023.67 1023.27 1022.22 1022.12 1022.19 1022.37 1022.52 1022.35 1022.10 1021.79 1021.68 1021.70
1025.50 1025.17 1024.67 1024.40 1023.85 1023.70 1023.66 1023.36 1023.68 1024.27 1024.73 1025.43 1025.24 1025.21 1024.83 1024.39 1024.18 1024.07 1023.80 1023.51 1023.23 1022.90 1022.83 1022.83 1022.65 1022.94 1023.11 1023.21 1023.32 1023.25 1023.40 1023.40 1023.60 1022.83 1022.42 1022.06 1022.05 1022.00 1021.96 1022.07 1021.93 1021.63 1021.49
1025.93 1025.93 1025.28 1024.99 1025.01 1024.85 1024.86 1024.62 1024.86 1025.33 1025.88 1025.93 1025.67 1025.56 1025.56 1025.48 1025.25 1025.13 1024.76 1024.42 1024.03 1024.03 1024.19 1023.78 1023.48 1023.31 1023.18 1023.34 1023.35 1023.18 1023.30 1023.40 1023.54 1023.69 1022.72 1022.26 1021.95 1021.52 1021.48 1021.41 1021.32 1021.40 1021.15
1026.44 1026.22 1026.00 1026.03 1025.94 1025.81 1026.00 1025.83 1025.61 1026.18 1026.64 1026.41 1026.31 1026.11 1026.36 1026.42 1026.25 1026.23 1025.87 1025.60 1025.24 1024.82 1024.42 1024.34 1024.09 1024.18 1023.88 1023.56 1023.16 1023.20 1023.30 1023.22 1023.10 1023.21 1023.08 1022.31 1021.99 1021.25 1020.88 1020.98 1021.04 1020.66 1020.41
Wind_Speed
6 7 12 14 14 13 12 11 11 9 9 9 8 9 9 9 10 12 12 12 12 10 8 8 8 9 9 9 9 9 8 11 12 11 10 12 12 13 12 13 10 7 10
8 9 12 14 15 14 13 12 11 10 8 8 8 8 8 10 11 11 11 10 9 7 7 6 7 7 8 7 8 8 10 11 9 8 9 9 10 11 12 12 11 10 14
8 11 11 12 14 13 14 12 12 12 11 10 9 8 8 9 8 9 9 9 8 7 6 5 6 6 7 6 7 7 7 7 7 7 3 3 4 10 10 11 11 12 11
9 11 11 11 12 11 13 13 12 11 11 11 10 10 9 8 7 8 10 9 7 6 6 5 6 6 6 6 7 7 7 6 7 7 4 2 2 9 9 10 10 11 11
7 9 11 12 12 13 13 12 12 12 11 11 10 9 9 10 9 9 10 8 7 6 4 5 5 5 6 6 7 6 6 6 8 7 6 4 3 5 7 8 8 9 10
6 6 9 15 14 14 12 12 12 11 11 11 11 11 9 10 10 9 8 7 7 5 2 2 4 4 4 5 5 5 6 7 7 6 5 5 4 7 6 5 6 8 9
5 5 6 14 14 14 13 13 11 11 11 11 11 11 10 8 8 7 6 3 5 1 1 1 2 3 4 4 4 5 6 8 5 5 5 5 5 6 5 7 9 8 6
7 6 6 11 12 13 14 14 13 13 11 11 11 12 11 12 10 8 6 6 4 4 4 2 1 2 3 3 4 5 6 7 5 5 4 4 5 5 5 6 6 7 7
5 6 5 7 9 10 11 13 12 11 11 10 10 10 11 11 11 9 7 7 6 5 5 3 2 2 2 2 4 6 7 7 5 2 3 2 3 3 2 2 2 2 2
5 6 7 7 8 6 6 9 9 10 9 9 7 7 10 10 10 9 7 6 7 7 7 5 3 2 1 1 2 5 7 8 4 3 2 2 1 1 1 1 1 2 1
4 6 5 6 8 12 11 8 10 11 10 9 6 7 7 4 6 7 6 7 6 6 7 6 5 4 1 1 2 4 5 2 3 1 1 3 2 2 1 1 2 2 2
6 5 5 5 7 8 8 9 8 7 6 5 5 6 4 6 6 6 6 8 8 7 5 6 5 3 3 1 2 3 2 2 1 1 1 4 3 3 2 2 2 2 2
6 4 5 6 5 8 9 6 5 2 3 4 6 5 5 4 4 3 2 2 2 5 2 3 1 3 1 2 2 1 0 1 0 1 3 3 4 5 5 4 4 2 2
8 8 9 7 6 6 3 7 7 4 3 2 3 4 4 3 4 3 3 3 2 1 3 3 3 3 1 3 4 3 1 1 1 1 3 5 5 6 6 6 4 4 5
10 9 10 9 7 6 7 4 6 7 4 3 3 4 3 3 5 4 4 3 3 2 3 3 3 3 2 3 3 3 3 3 3 2 2 7 7 8 9 6 7 6 6
12 13 12 11 7 5 6 5 5 6 6 3 3 4 5 4 4 5 4 4 4 4 4 4 4 3 3 1 4 4 4 3 3 3 3 3 7 8 10 9 7 7 8
9 11 14 13 12 3 4 4 3 5 4 3 3 5 6 6 6 7 5 3 4 5 6 4 2 2 2 1 4 3 3 4 4 4 4 3 4 7 7 9 9 9 8
12 13 13 12 12 8 3 4 4 3 2 1 3 2 4 4 3 3 3 4 4 4 4 4 3 2 3 3 2 3 3 3 5 5 4 4 3 3 5 6 6 9 10
11 12 14 14 14 11 8 6 7 7 6 5 4 3 4 3 4 4 3 3 4 4 3 3 1 2 2 2 4 3 4 4 5 3 5 5 5 4 3 5 4 5 6
11 13 13 12 14 10 6 9 9 10 9 9 10 10 10 5 3 1 1 2 3 3 3 2 2 2 1 2 2 4 4 5 4 5 5 4 5 5 5 5 4 4 4
14 14 15 16 16 12 7 4 6 7 7 10 10 15 14 13 12 7 4 4 1 2 1 3 2 3 1 2 2 3 3 6 6 5 4 5 6 5 5 5 4 3 4
11 13 15 15 14 12 8 4 5 4 5 6 9 13 15 15 14 11 9 6 6 4 5 2 2 1 1 3 2 1 5 5 3 5 4 5 6 4 5 6 6 6 5
12 11 12 12 14 12 11 6 5 5 4 7 10 9 13 14 15 14 13 9 7 4 3 3 1 2 3 1 3 1 2 4 4 3 3 3 4 4 5 5 6 6 6
8 7 9 12 13 12 11 12 14 9 7 4 4 5 8 12 13 13 12 12 11 7 7 4 2 2 1 4 1 5 2 2 2 6 3 3 4 7 6 5 6 6 6
6 6 6 10 12 11 11 11 9 11 6 5 6 10 11 10 12 13 12 11 10 8 9 9 7 4 1 3 2 1 2 2 2 3 9 5 2 4 5 7 7 6 7
6 6 7 10 10 9 10 11 12 11 9 8 9 8 7 6 8 12 11 10 9 8 8 7 7 8 5 4 3 3 3 3 2 4 5 6 8 5 4 4 6 8 7
Wind_Direction
242 194 182 174 172 166 162 158 150 143 135 126 117 112 109 121 116 107 101 92 86 81 80 80 80 74 66 63 62 64 57 57 51 59 68 71 65 66 60 56 54 58 68
144 180 179 179 175 174 170 160 151 145 142 136 129 123 115 118 118 111 102 94 89 88 82 88 80 82 71 66 63 56 47 48 45 37 47 61 77 72 64 54 53 63 60
147 168 179 184 180 182 170 162 156 156 159 155 148 138 132 134 132 117 111 101 95 90 86 91 81 72 64 53 53 56 58 46 33 31 61 62 79 81 72 64 56 59 64
154 165 175 179 178 165 162 163 161 166 168 165 159 153 153 148 143 141 129 117 107 99 96 97 89 70 55 44 40 37 43 28 44 54 77 77 65 83 76 73 64 60 55
156 165 174 175 177 169 168 166 169 173 172 171 167 165 163 164 155 140 123 122 105 93 81 85 73 63 43 36 26 29 45 46 66 65 67 64 46 86 89 86 79 76 61
163 167 173 178 180 175 175 174 176 178 179 177 180 180 181 156 133 127 134 137 117 94 72 80 70 56 47 26 21 40 63 80 65 60 53 34 38 77 77 104 104 112 82
169 169 172 183 184 182 181 182 185 188 190 183 196 185 167 146 140 148 159 190 131 175 247 109 72 56 42 34 35 67 81 90 79 64 53 33 31 52 37 54 59 59 71
173 177 178 191 189 185 184 184 185 189 193 194 200 185 176 168 167 171 178 180 177 218 225 166 111 68 43 41 57 59 93 95 86 78 55 37 36 54 46 36 35 40 58
185 173 182 193 198 198 193 205 185 192 196 200 207 199 186 171 170 174 184 191 192 204 223 184 165 143 116 65 66 70 91 104 93 73 66 23 355 80 85 82 82 61 64
210 197 191 186 193 196 199 187 186 192 196 199 200 196 174 170 168 174 174 178 191 196 210 186 192 194 145 94 75 84 94 93 87 74 46 330 58 98 79 286 178 183 195
249 231 204 196 194 198 202 199 194 196 198 202 197 197 169 162 171 174 168 185 197 189 211 191 202 199 130 348 60 88 88 84 96 73 13 329 336 229 228 257 254 232 227
305 300 257 215 203 201 206 206 200 199 200 198 192 192 172 175 172 170 179 183 181 181 205 200 214 152 72 344 339 40 65 103 84 73 323 319 292 248 224 252 249 228 220
273 275 234 235 229 206 209 204 203 221 192 173 182 186 165 163 143 150 153 180 172 179 161 158 97 78 342 320 309 342 45 83 7 322 306 301 309 268 252 241 233 192 202
1 344 331 276 215 208 207 208 209 204 186 173 173 170 163 154 147 154 159 174 178 169 178 156 147 157 244 305 298 293 276 245 265 289 292 291 288 275 245 230 221 223 229
355 340 331 317 246 202 184 179 200 215 205 180 149 172 194 172 160 160 172 172 173 155 182 186 181 179 219 291 291 287 280 267 251 262 292 304 296 283 263 232 232 224 219
344 344 336 331 309 207 196 172 180 205 218 196 200 198 199 173 165 174 177 185 182 175 182 185 186 199 233 266 285 281 272 275 277 274 275 295 308 298 274 245 237 234 226
346 337 352 348 340 230 170 147 142 190 184 178 205 192 189 181 185 177 172 180 218 183 169 159 162 150 208 244 263 276 282 278 274 265 264 273 298 317 313 267 238 230 234
359 3 353 359 1 9 73 101 109 101 98 172 227 223 201 203 172 165 163 192 183 168 168 164 164 207 230 214 229 249 278 292 286 278 281 272 271 286 316 342 309 254 224
2 5 10 11 12 11 38 53 53 49 38 17 7 347 306 248 216 188 202 199 162 158 176 159 146 191 206 258 264 268 263 265 269 284 265 267 265 268 275 297 331 335 303
14 15 15 17 20 20 29 55 51 48 36 35 31 18 10 359 344 256 232 193 156 147 131 149 158 140 115 216 261 285 293 281 269 251 251 259 255 259 264 268 281 290 307
25 30 27 26 13 20 18 28 45 55 35 34 33 27 28 27 21 17 13 15 30 198 169 127 105 184 202 102 24 319 280 244 253 251 252 249 251 244 252 267 272 277 284
25 25 27 30 30 33 34 14 29 34 44 50 32 32 25 23 24 32 30 26 32 15 18 27 116 108 251 182 150 121 320 325 287 254 238 247 251 253 252 247 258 263 263
30 25 38 39 39 32 35 46 51 54 36 26 25 27 24 25 24 24 21 20 28 38 26 10 8 284 315 251 233 188 300 259 323 338 314 273 289 277 277 269 258 254 255
25 11 40 42 48 41 34 58 64 66 65 8 15 19 27 30 29 24 23 23 19 16 18 354 342 263 189 270 291 228 232 152 295 311 308 301 253 242 238 252 257 255 246
34 19 38 56 50 48 48 60 72 73 57 43 37 36 28 24 28 22 22 21 28 25 8 3 352 331 270 270 240 286 254 221 179 228 288 302 291 253 242 236 236 239 243
40 42 39 54 52 50 54 59 70 67 56 56 43 45 28 21 20 18 14 15 18 20 20 5 357 347 329 295 258 241 229 257 250 234 259 281 265 282 255 231 233 244 239